Wind_Speed
22 23 23 25 24 24 24 25 24 24 24 25 24 23 24 25 29 32 35 33 30 30 31 32 31 32 32 35 36 38 41 42 42 40 39 40 38 37 39 31 29 31 33
25 26 26 27 28 25 25 23 23 24 23 23 23 21 20 21 25 28 29 28 26 25 25 26 25 25 26 28 30 32 34 36 37 39 37 37 38 41 39 38 34 34 33
25 26 28 30 30 28 27 25 25 25 22 23 24 22 20 18 20 22 22 22 22 23 22 22 23 24 23 23 25 26 27 29 31 34 37 34 35 37 40 38 40 38 36
25 26 29 30 30 30 29 26 25 26 26 26 26 23 23 20 19 18 18 17 15 15 14 15 16 18 17 17 19 21 23 25 27 27 30 32 31 29 33 37 39 39 40
27 28 31 31 30 31 31 29 27 26 26 28 27 26 25 21 19 18 15 13 12 12 14 14 13 13 17 16 15 16 16 16 15 17 20 25 28 31 30 33 36 37 41
29 31 32 33 32 32 32 32 32 30 28 29 29 28 26 23 22 21 21 19 19 18 18 18 18 18 18 19 21 20 20 19 20 20 19 20 20 23 24 25 33 36 40
31 33 33 34 34 35 35 35 34 33 34 32 31 30 29 30 29 28 27 26 25 24 25 25 27 27 26 24 24 25 26 27 28 27 26 24 24 23 21 22 20 23 32
32 34 36 37 37 38 39 39 37 35 35 35 34 34 34 33 34 34 33 33 32 33 33 33 32 32 32 32 32 30 30 31 33 32 33 32 30 30 31 32 29 27 24
36 37 37 38 40 41 40 40 40 39 37 36 37 36 37 40 40 39 39 39 39 39 39 40 41 42 43 42 40 38 38 37 37 39 39 40 39 38 37 37 37 34 33
38 39 39 39 40 42 41 40 40 40 40 40 40 40 41 41 43 45 46 46 46 44 45 46 48 49 51 50 48 46 45 45 46 46 47 46 46 47 47 46 44 43 41
39 40 41 40 40 42 42 41 41 42 42 43 44 44 45 45 45 46 48 52 53 53 53 53 53 53 54 55 54 55 55 56 55 55 54 53 54 53 53 53 53 51 50
40 42 42 42 43 44 44 43 43 43 43 44 45 46 47 47 48 49 51 51 52 54 57 60 61 62 63 64 64 65 66 66 65 63 62 60 58 59 58 59 59 58 59
44 44 44 45 46 46 46 45 45 45 45 46 48 48 48 48 49 50 50 50 52 53 55 57 60 63 64 66 68 69 70 70 70 69 68 65 64 63 64 64 66 66 66
48 47 47 48 49 47 47 47 47 47 47 48 49 49 50 50 50 51 51 51 52 53 54 55 58 59 61 62 63 65 66 67 68 69 70 70 70 69 69 69 69 70 70
51 50 51 52 51 49 48 47 48 48 49 50 52 53 53 53 54 54 54 55 55 56 57 58 60 60 62 63 64 65 67 68 69 70 71 72 73 73 73 74 74 75 76
54 54 54 55 51 49 49 49 50 52 53 55 56 56 56 56 57 56 57 58 59 60 61 61 62 63 64 66 67 69 70 71 71 72 72 72 73 74 75 76 77 77 77
57 57 57 54 51 51 51 52 53 54 55 57 58 58 59 58 58 59 60 61 63 64 66 66 67 68 69 71 71 73 75 75 76 77 78 79 79 79 81 82 82 81 82
55 56 55 53 52 52 53 54 55 56 57 59 59 59 59 59 60 63 65 67 69 70 70 72 73 75 77 79 81 83 84 84 84 85 85 87 86 87 84 86 86 83 83
54 55 54 53 52 53 53 54 56 58 59 60 60 61 62 64 66 68 70 72 73 74 76 79 81 84 86 89 91 93 94 94 94 94 93 92 92 90 89 87 85 83 82
55 54 53 52 52 53 55 56 59 60 61 61 62 63 65 68 70 73 75 78 81 83 86 88 90 93 94 96 99 101 103 102 100 99 96 95 93 90 89 85 84 81 77
53 53 53 53 53 55 57 59 61 61 61 62 65 68 71 73 76 79 82 84 87 90 93 97 99 103 106 107 108 107 106 101 96 92 87 84 79 77 74 70 60 67 60
53 53 53 54 56 58 60 61 61 62 64 67 70 74 76 78 81 85 89 94 99 103 106 109 110 109 106 101 94 88 85 81 78 73 68 63 64 67 56 55 55 55 54
53 53 55 56 58 60 61 61 63 67 69 72 76 79 82 86 91 96 101 105 109 110 109 104 97 90 83 75 69 66 63 60 58 56 53 52 55 54 53 56 52 49 55
54 56 56 58 60 61 62 65 68 71 75 78 81 86 91 96 101 105 109 109 105 99 92 83 76 68 59 53 50 47 46 45 44 40 36 30 35 34 43 46 49 55 55
56 57 58 60 61 63 67 71 74 77 79 83 88 95 100 105 108 109 105 94 85 78 70 61 56 51 45 41 38 36 35 35 32 29 29 28 30 41 47 44 45 44 52
57 58 59 61 64 68 72 75 78 81 85 92 97 102 107 109 106 99 90 73 64 57 52 49 46 40 39 35 32 30 29 27 27 26 29 38 37 34 47 49 50 46 47
Wind_Direction
326 323 323 323 321 315 309 306 303 300 296 294 292 293 292 299 307 307 305 307 305 296 293 288 283 279 277 276 275 272 270 269 272 273 274 272 274 274 273 276 276 277 275
330 328 323 322 324 320 316 310 304 299 295 292 287 289 300 312 313 310 311 313 312 312 308 296 287 282 281 278 275 273 274 274 272 273 272 269 267 268 271 270 270 268 269
326 323 319 321 322 322 321 315 309 303 294 290 292 296 302 302 302 303 306 306 307 307 303 300 298 293 286 279 276 275 271 270 269 271 274 273 268 266 266 266 265 265 264
320 318 315 318 321 320 319 315 306 300 296 293 293 295 294 291 290 295 299 304 310 314 316 313 305 299 296 290 285 281 279 277 275 269 267 267 269 263 262 260 260 258 257
319 316 315 319 318 315 314 313 304 299 292 288 287 291 292 289 289 286 283 288 297 300 308 310 312 305 310 307 307 302 293 289 289 290 284 272 266 265 259 259 259 257 256
313 312 315 316 314 311 309 307 304 298 294 286 283 287 286 279 283 281 281 283 287 288 289 293 294 294 294 292 296 300 292 286 293 298 303 292 288 277 269 258 253 259 258
311 309 312 312 310 308 306 305 302 299 296 292 282 281 282 280 279 277 276 279 280 282 284 285 286 285 287 288 288 289 288 290 292 290 295 295 292 288 285 278 279 263 262
310 309 312 312 308 308 310 310 307 304 296 292 290 282 280 278 278 277 276 278 279 278 279 280 283 285 287 288 287 286 285 284 286 288 289 289 290 291 288 286 280 277 270
313 313 312 312 310 310 310 309 309 308 305 299 292 287 281 276 277 278 275 275 275 275 276 275 276 278 283 284 284 283 283 282 282 284 284 286 287 284 285 286 285 282 274
313 314 313 311 309 308 309 310 308 307 306 303 298 293 289 286 281 277 276 276 275 273 273 274 275 276 279 281 281 281 281 283 283 283 283 282 281 280 281 283 283 282 281
311 314 313 310 309 308 308 307 306 305 302 299 297 296 294 291 287 284 281 279 277 275 274 274 274 276 277 279 279 280 280 281 281 281 280 278 278 277 277 278 277 278 279
310 311 311 310 310 307 305 303 301 299 297 295 293 292 292 292 291 290 288 286 284 282 280 279 277 277 278 278 278 278 278 278 277 276 276 275 275 274 274 275 275 274 273
309 309 310 309 310 307 303 300 298 297 296 295 294 292 291 289 288 288 287 285 284 283 282 281 280 279 277 276 276 276 275 275 276 276 276 274 274 274 274 274 274 274 274
307 307 308 308 308 306 302 300 298 297 297 295 294 293 291 290 290 289 288 287 286 286 285 284 283 283 282 280 279 278 276 275 274 274 275 275 275 275 275 274 274 274 275
304 304 305 306 306 304 302 301 299 298 297 296 296 297 297 296 294 293 291 290 289 288 287 286 285 284 284 283 281 279 277 276 275 275 274 273 273 273 273 274 274 275 277
302 302 303 306 304 303 302 301 300 300 301 301 300 298 296 295 294 293 292 291 291 290 290 289 288 287 286 284 283 282 281 279 278 276 275 274 273 274 274 274 274 275 275
303 302 303 303 302 302 302 303 302 302 301 299 298 297 296 296 295 293 293 294 294 293 293 292 291 290 288 287 285 284 282 281 280 279 278 277 276 275 275 275 276 275 275
305 303 301 301 303 302 302 302 302 300 299 298 297 297 297 297 296 296 297 297 296 295 294 293 292 290 289 288 286 284 283 282 281 280 279 278 278 277 277 276 275 275 275
304 300 300 301 302 302 302 302 301 299 299 299 300 300 300 300 299 298 297 296 295 294 293 292 291 289 287 286 285 284 282 281 280 279 278 278 277 277 277 277 278 277 277
300 301 299 301 301 303 303 302 302 302 302 302 302 302 301 300 299 298 299 298 297 295 294 292 290 289 287 285 283 282 281 280 278 278 277 276 276 276 275 274 273 271 270
300 298 300 303 305 305 304 303 304 304 304 304 303 302 301 302 302 301 300 299 298 297 296 295 293 291 289 287 285 285 285 284 283 280 276 273 271 268 265 260 259 257 254
296 300 304 306 306 306 306 305 305 305 305 304 304 304 304 304 304 305 305 304 302 300 298 297 295 294 293 292 290 287 285 283 281 278 273 266 258 251 252 259 250 252 250
302 305 306 306 306 306 306 306 305 306 306 306 307 307 308 309 309 308 307 305 304 302 301 300 299 297 295 294 292 288 285 282 278 275 269 262 255 251 238 246 254 247 247
306 307 307 307 307 307 307 307 307 308 309 310 311 311 311 311 310 309 308 307 305 304 303 302 301 299 298 296 293 291 287 282 277 272 265 249 261 230 241 250 251 249 250
306 306 307 307 307 308 308 309 311 311 312 313 313 313 313 312 311 310 309 308 308 307 306 304 303 303 303 302 299 295 287 281 278 263 247 226 237 231 235 243 247 248 244
305 307 308 308 309 310 312 312 313 314 314 315 315 314 314 313 312 311 311 312 311 309 307 306 307 308 309 308 305 300 291 280 268 254 233 225 232 229 230 236 241 248 247
Height
5878 5875 5870 5868 5867 5864 5862 5859 5857 5854 5851 5849 5846 5843 5840 5837 5833 5829 5825 5822 5818 5815 5813 5812 5812 5811 5811 5811 5811 5810 5810 5809 5809 5809 5810 5810 5810 5811 5811 5814 5814 5815 5814
5874 5870 5867 5864 5861 5858 5856 5853 5851 5847 5845 5843 5841 5837 5833 5830 5826 5823 5819 5815 5813 5810 5807 5805 5803 5802 5801 5801 5800 5800 5800 5801 5800 5800 5801 5801 5802 5801 5803 5803 5805 5805 5807
5869 5866 5862 5859 5856 5853 5850 5846 5844 5842 5840 5838 5836 5832 5828 5824 5821 5818 5814 5811 5809 5806 5803 5800 5798 5796 5794 5793 5792 5791 5790 5790 5791 5791 5791 5792 5792 5792 5792 5793 5793 5795 5797
5866 5862 5859 5855 5852 5848 5845 5842 5839 5836 5834 5831 5829 5826 5823 5819 5816 5813 5810 5806 5803 5801 5798 5795 5793 5791 5789 5787 5786 5784 5783 5781 5781 5782 5781 5782 5782 5782 5783 5782 5783 5784 5786
5861 5857 5853 5850 5847 5842 5838 5835 5833 5830 5828 5825 5823 5820 5817 5814 5812 5808 5805 5802 5799 5797 5795 5792 5790 5788 5786 5785 5783 5781 5779 5777 5775 5774 5773 5772 5772 5773 5774 5772 5772 5772 5773
5855 5852 5848 5845 5841 5837 5832 5829 5826 5824 5821 5819 5816 5813 5810 5809 5806 5803 5801 5798 5794 5792 5790 5788 5786 5784 5781 5779 5778 5776 5775 5773 5771 5769 5767 5766 5765 5763 5763 5764 5764 5761 5760
5851 5847 5843 5839 5835 5831 5826 5823 5819 5816 5814 5812 5810 5807 5803 5801 5799 5797 5794 5791 5789 5786 5783 5781 5779 5777 5775 5773 5771 5769 5768 5766 5764 5762 5761 5759 5758 5757 5756 5755 5755 5755 5752
5845 5841 5838 5833 5828 5823 5819 5816 5812 5810 5807 5804 5801 5798 5795 5792 5789 5787 5785 5782 5780 5778 5776 5774 5771 5770 5767 5765 5763 5761 5759 5757 5756 5753 5752 5750 5748 5748 5747 5746 5746 5745 5744
5839 5834 5830 5826 5821 5816 5811 5808 5804 5800 5797 5795 5792 5788 5785 5782 5780 5778 5775 5772 5769 5767 5765 5763 5761 5760 5757 5755 5752 5750 5748 5747 5745 5743 5741 5739 5737 5736 5735 5734 5734 5734 5735
5833 5828 5823 5818 5813 5808 5804 5800 5796 5792 5787 5783 5780 5777 5774 5771 5768 5766 5763 5760 5758 5755 5753 5750 5748 5746 5743 5741 5739 5737 5735 5733 5731 5730 5728 5726 5724 5723 5722 5721 5720 5720 5720
5826 5821 5816 5811 5806 5801 5796 5791 5786 5782 5778 5773 5769 5766 5763 5759 5756 5752 5749 5746 5744 5741 5738 5735 5733 5731 5728 5725 5724 5722 5720 5718 5716 5715 5713 5711 5710 5708 5707 5706 5705 5705 5704
5818 5813 5808 5803 5798 5793 5787 5782 5777 5773 5768 5764 5759 5755 5750 5746 5743 5739 5735 5732 5729 5726 5722 5719 5716 5714 5711 5708 5706 5704 5701 5699 5698 5697 5696 5694 5693 5691 5690 5689 5688 5688 5688
5809 5804 5799 5794 5788 5783 5777 5772 5767 5762 5757 5752 5747 5743 5739 5735 5731 5727 5723 5718 5714 5710 5707 5703 5699 5695 5692 5689 5686 5683 5681 5678 5677 5675 5675 5674 5673 5672 5670 5670 5669 5668 5668
5798 5793 5788 5783 5778 5773 5767 5762 5756 5751 5746 5741 5736 5731 5726 5721 5717 5712 5709 5704 5700 5696 5692 5687 5683 5678 5674 5670 5666 5662 5659 5657 5656 5655 5653 5652 5651 5650 5649 5648 5648 5647 5646
5788 5783 5778 5772 5767 5761 5755 5749 5744 5738 5733 5728 5722 5717 5711 5706 5701 5696 5692 5688 5683 5679 5674 5669 5665 5660 5655 5650 5645 5641 5638 5635 5634 5632 5631 5630 5628 5628 5627 5626 5626 5625 5623
5778 5772 5766 5759 5753 5747 5742 5736 5731 5725 5719 5714 5708 5702 5697 5691 5686 5681 5676 5671 5666 5661 5655 5650 5645 5641 5635 5630 5624 5618 5615 5612 5610 5609 5607 5606 5605 5604 5602 5601 5600 5599 5600
5765 5760 5754 5747 5741 5735 5729 5724 5718 5713 5707 5700 5694 5688 5682 5676 5671 5664 5659 5653 5648 5642 5636 5630 5624 5619 5613 5607 5601 5595 5590 5587 5585 5582 5580 5577 5576 5578 5574 5573 5572 5573 5573
5754 5748 5741 5734 5728 5723 5717 5712 5706 5699 5693 5686 5679 5672 5666 5660 5654 5648 5641 5635 5628 5621 5615 5609 5602 5595 5589 5582 5575 5568 5563 5560 5558 5554 5551 5547 5546 5544 5547 5540 5543 5543 5543
5741 5735 5728 5723 5717 5711 5705 5699 5692 5685 5678 5671 5664 5657 5651 5644 5637 5630 5622 5615 5608 5601 5593 5586 5578 5571 5564 5555 5546 5537 5531 5528 5525 5522 5520 5516 5514 5512 5515 5510 5513 5513 5514
5728 5722 5716 5710 5704 5698 5692 5685 5677 5670 5662 5655 5648 5641 5634 5627 5619 5610 5602 5593 5584 5576 5567 5559 5550 5541 5534 5524 5513 5501 5494 5492 5489 5488 5486 5485 5483 5481 5483 5482 5483 5485 5486
5716 5709 5703 5697 5690 5684 5677 5669 5662 5654 5647 5639 5632 5624 5616 5607 5598 5589 5578 5568 5557 5547 5537 5526 5516 5504 5494 5485 5475 5463 5451 5448 5448 5447 5450 5448 5447 5449 5450 5452 5454 5458 5460
5703 5697 5690 5683 5676 5669 5662 5655 5647 5639 5631 5623 5614 5605 5596 5585 5574 5563 5551 5537 5523 5511 5500 5484 5474 5462 5449 5438 5430 5423 5413 5409 5406 5409 5412 5415 5418 5422 5427 5428 5435 5438 5441
5690 5684 5676 5669 5661 5655 5647 5639 5631 5622 5613 5604 5594 5584 5573 5560 5547 5533 5519 5503 5486 5470 5457 5442 5430 5421 5413 5404 5395 5389 5385 5382 5380 5381 5385 5389 5394 5402 5407 5411 5416 5419 5423
5677 5670 5663 5655 5647 5639 5631 5623 5615 5605 5594 5583 5572 5560 5548 5534 5519 5503 5486 5466 5449 5433 5420 5408 5399 5391 5388 5382 5375 5370 5366 5364 5363 5365 5369 5374 5378 5388 5393 5397 5399 5401 5404
5664 5657 5650 5642 5633 5625 5616 5606 5596 5584 5573 5561 5548 5534 5519 5503 5487 5471 5455 5436 5421 5402 5391 5385 5378 5372 5371 5366 5360 5355 5353 5351 5352 5353 5357 5364 5368 5373 5377 5380 5381 5383 5389
5652 5645 5636 5626 5618 5609 5598 5587 5576 5564 5552 5538 5522 5506 5489 5471 5453 5436 5426 5419 5398 5387 5377 5368 5363 5361 5355 5352 5349 5345 5343 5342 5342 5344 5347 5352 5355 5358 5362 5365 5368 5372 5376